CZ-2D DEB, 44605

Orbit data source: Space-Track

CZ-2D DEB, 44605 is space debris in SSO originally from a launch on Fri, 11 Nov 2016 UTC launched from the Jiuquan Satellite Launch Center, China (JSC). Debris objects in space refer to the collection of defunct objects orbiting the Earth. Examples of debris include non-operational satellites, rocket bodies, and fragments generated from explosions, collisions, or faulty payload assembly.

Loading next visibility...
Identifier
44605, 2016-068E
Orbit
SSO
Country
Flag of CNCN / PRC
Related business
Manufacturer
Unknown
Mission
Spacecraft
Bus & Motor
Unknown
Mass
Unknown
Launch date (UTC)
2016-11-11 (9 years ago)
Launch vehicle
Unknown
Launch site
Jiuquan Satellite Launch Center, China (JSC)
Object type
Payload
Rocket body
Debris
Shape & HBR
Unknown
Radar Cross Section
Small (<0.1 m²)

Expand to show TLE details & history
Last TLE update: 3 days ago

TLE from 3 days ago
0 CZ-2D DEB
1 44605U 16068E   25258.49038258  .00000384  00000-0  28521-3 0  9997
2 44605  98.4457 342.0131 0228069 294.0369  63.7075 13.88878147443017
Epoch: 2025-09-15T11:46Z
TLE epoch observation values (Epoch: 2025-09-15T11:46:09.054Z)
Latitude
-0.00002°
Longitude
170.78109°
Altitude
864.681 km
Speed
7.456 km/s
True Right ascension
22h 48m 03s
True Declination
0° 00' 00"
Sunlit
Object was in full shadow at epoch
Visualization orbit readout
Latitude
Unknown
Longitude
Unknown
Altitude
Unknown
Speed
Unknown
Apparent Right ascension
Unknown
Apparent Declination
Unknown
Sunlit
N/A
Visualization observer readout
Local Sidereal Time
06:44:54
Azimuth
Unknown
Elevation
Unknown
Doppler factor
Unknown
Orbital elements
Apogee altitude
1,096.421 km
Perigee altitude
763.081 km
Semi-major axis
7,307.888 km
Eccentricity
0.02281
Inclination
98.4457°
RAAN
342.0131°
Arg. of periapsis
294.0369°
True anomaly
66.07987°
Mean anomaly
63.7075°
Eccentric anomaly
64.89075°
Mean motion
3.4742 °/min
Orbital period
103.62 mins
BSTAR
0.00028521
Loading maneuver chart data...
Computing Atmospheric mass density...
Loading historical data...
Loading historical data...
Loading historical data...
Loading historical data...
Loading historical data...
Loading historical data...
Loading historical data...

Documentation

Showing up to 5 results
|